N565W -KGWS

Flight info

Callsign N565W
Flight time N/A
Altitude VFR
Route
Aircraft C152/L-DOV/C

Departure

Time N/A
Airport -

Arrival

Time 2026-04-22 01:24
Airport Glenwood Springs Municipal Airport (KGWS)
Time Latitude Longitude Altitude Speed Heading
2026-04-22 01:06 39.28366 -106.90415 9787 ft 75 kts 297°
2026-04-22 01:07 39.28663 -106.90965 9876 ft 75 kts 287°
2026-04-22 01:07 39.28986 -106.91465 9957 ft 87 kts 335°
2026-04-22 01:07 39.29438 -106.91731 10027 ft 88 kts 328°
2026-04-22 01:07 39.30019 -106.91990 10119 ft 90 kts 332°
2026-04-22 01:08 39.30656 -106.92301 10198 ft 106 kts 332°
2026-04-22 01:08 39.31331 -106.92743 10298 ft 110 kts 323°
2026-04-22 01:08 39.31974 -106.93215 10423 ft 105 kts 324°
2026-04-22 01:08 39.32512 -106.93783 10527 ft 97 kts 291°
2026-04-22 01:09 39.32793 -106.94583 10644 ft 100 kts 289°
2026-04-22 01:09 39.33103 -106.95390 10755 ft 100 kts 292°
2026-04-22 01:09 39.33425 -106.96181 10868 ft 100 kts 292°
2026-04-22 01:09 39.33744 -106.96974 10984 ft 99 kts 291°
2026-04-22 01:10 39.34061 -106.97761 11082 ft 97 kts 291°
2026-04-22 01:10 39.34368 -106.98500 11193 ft 91 kts 292°
2026-04-22 01:10 39.34662 -106.99205 11295 ft 88 kts 291°
2026-04-22 01:10 39.34956 -106.99904 11405 ft 90 kts 291°
2026-04-22 01:11 39.35264 -107.00634 11525 ft 94 kts 291°
2026-04-22 01:11 39.35581 -107.01389 11643 ft 96 kts 291°
2026-04-22 01:11 39.35895 -107.02134 11748 ft 91 kts 291°
2026-04-22 01:11 39.36190 -107.02818 11856 ft 86 kts 291°
2026-04-22 01:12 39.36490 -107.03505 11880 ft 92 kts 291°
2026-04-22 01:12 39.36813 -107.04273 11824 ft 101 kts 291°
2026-04-22 01:12 39.37154 -107.05089 11761 ft 106 kts 291°
2026-04-22 01:12 39.37508 -107.05942 11678 ft 109 kts 292°
2026-04-22 01:13 39.37867 -107.06818 11565 ft 112 kts 292°
2026-04-22 01:13 39.38240 -107.07729 11451 ft 116 kts 292°
2026-04-22 01:13 39.38618 -107.08655 11323 ft 117 kts 291°
2026-04-22 01:13 39.38995 -107.09573 11203 ft 116 kts 292°
2026-04-22 01:14 39.39375 -107.10499 11077 ft 116 kts 291°
2026-04-22 01:14 39.39753 -107.11417 10949 ft 115 kts 292°
2026-04-22 01:14 39.40125 -107.12326 10824 ft 114 kts 291°
2026-04-22 01:14 39.40496 -107.13243 10698 ft 115 kts 292°
2026-04-22 01:15 39.40867 -107.14171 10574 ft 117 kts 291°
2026-04-22 01:15 39.41241 -107.15110 10455 ft 118 kts 291°
2026-04-22 01:15 39.41621 -107.16064 10321 ft 120 kts 292°
2026-04-22 01:15 39.42005 -107.17016 10202 ft 119 kts 291°
2026-04-22 01:16 39.42393 -107.17966 10091 ft 120 kts 292°
2026-04-22 01:16 39.42788 -107.18927 9967 ft 120 kts 292°
2026-04-22 01:16 39.43173 -107.19856 9856 ft 117 kts 292°
2026-04-22 01:16 39.43555 -107.20776 9785 ft 114 kts 292°
2026-04-22 01:17 39.43930 -107.21662 9763 ft 109 kts 291°
2026-04-22 01:17 39.44297 -107.22520 9751 ft 110 kts 292°
2026-04-22 01:17 39.44672 -107.23409 9615 ft 114 kts 292°
2026-04-22 01:17 39.45050 -107.24313 9490 ft 114 kts 291°
2026-04-22 01:18 39.45433 -107.25222 9379 ft 117 kts 292°
2026-04-22 01:18 39.45826 -107.26164 9251 ft 119 kts 292°
2026-04-22 01:18 39.46220 -107.27111 9108 ft 121 kts 292°
2026-04-22 01:18 39.46608 -107.28062 8953 ft 117 kts 292°
2026-04-22 01:19 39.46976 -107.28999 8792 ft 116 kts 292°
2026-04-22 01:19 39.47330 -107.29939 8650 ft 117 kts 292°
2026-04-22 01:19 39.47708 -107.30868 8494 ft 118 kts 309°
2026-04-22 01:19 39.48492 -107.31241 8311 ft 126 kts 348°
2026-04-22 01:20 39.49354 -107.31359 8098 ft 125 kts 348°
2026-04-22 01:20 39.50218 -107.31475 7861 ft 126 kts 348°
2026-04-22 01:20 39.51095 -107.31591 7560 ft 126 kts 348°
2026-04-22 01:20 39.51967 -107.31708 7292 ft 127 kts 348°
2026-04-22 01:21 39.52839 -107.31843 7183 ft 122 kts 348°
2026-04-22 01:21 39.53632 -107.31993 7254 ft 112 kts 336°
2026-04-22 01:21 39.54049 -107.32683 7264 ft 98 kts 265°
2026-04-22 01:21 39.53672 -107.33277 7266 ft 91 kts 193°
2026-04-22 01:22 39.53077 -107.32995 7266 ft 92 kts 160°
2026-04-22 01:22 39.52540 -107.32630 7258 ft 80 kts 159°
2026-04-22 01:22 39.52043 -107.32287 7190 ft 87 kts 159°
2026-04-22 01:22 39.51449 -107.31914 7083 ft 102 kts 161°
2026-04-22 01:23 39.50774 -107.31568 6980 ft 106 kts 166°
2026-04-22 01:23 39.50070 -107.31249 6833 ft 106 kts 165°
2026-04-22 01:23 39.49369 -107.31011 6648 ft 105 kts 168°
2026-04-22 01:23 39.48774 -107.30457 6460 ft 116 kts 117°
2026-04-22 01:24 39.49148 -107.29806 6391 ft 105 kts 340°
2026-04-22 01:24 39.49702 -107.30304 6135 ft 97 kts 323°
2026-04-22 01:24 39.50216 -107.30656 5884 ft 68 kts 322°
2026-04-22 01:24 39.50474 -107.30839 5867 ft 20 kts 330°
2026-04-22 01:25 39.50528 -107.30826 5866 ft 4 kts 50°
2026-04-22 01:25 39.50536 -107.30825 5866 ft 0 kts 318°
2026-04-22 01:25 39.50546 -107.30841 5868 ft 0 kts 306°
2026-04-22 01:28 39.50570 -107.30859 5866 ft 8 kts 336°
2026-04-22 01:28 39.50641 -107.30903 5864 ft 14 kts 330°
2026-04-22 01:29 39.50738 -107.30951 5866 ft 15 kts 347°
2026-04-22 01:29 39.50810 -107.30974 5868 ft 14 kts 329°
2026-04-22 01:29 39.50910 -107.31038 5868 ft 19 kts 330°
2026-04-22 01:29 39.50989 -107.31091 5866 ft 0 kts 338°
2026-04-22 01:31 39.51008 -107.31104 5868 ft 6 kts 331°
2026-04-22 01:31 39.51016 -107.31131 5869 ft 0 kts 244°
2026-04-22 01:33 39.51010 -107.31146 5870 ft 6 kts 241°
2026-04-22 01:33 39.50983 -107.31158 5869 ft 0 kts 157°
2026-04-22 01:34 39.50971 -107.31150 5869 ft 8 kts 158°
2026-04-22 01:34 39.50765 -107.31022 5864 ft 55 kts 154°
2026-04-22 01:34 39.50347 -107.30766 5967 ft 68 kts 162°
2026-04-22 01:34 39.49928 -107.30479 6110 ft 69 kts 159°
2026-04-22 01:35 39.49478 -107.30275 6206 ft 69 kts 176°
2026-04-22 01:35 39.49049 -107.29972 6285 ft 76 kts 134°
2026-04-22 01:35 39.48572 -107.29628 6340 ft 86 kts 171°
2026-04-22 01:35 39.48095 -107.29173 6467 ft 94 kts 124°
2026-04-22 01:36 39.47736 -107.28472 6586 ft 92 kts 129°
2026-04-22 01:36 39.47239 -107.28059 6700 ft 85 kts 194°
2026-04-22 01:36 39.46958 -107.28625 6819 ft 86 kts 280°
2026-04-22 01:36 39.47446 -107.29048 6924 ft 94 kts 344°
2026-04-22 01:37 39.48074 -107.29260 7053 ft 93 kts 336°
2026-04-22 01:37 39.48685 -107.29556 7182 ft 97 kts 333°
2026-04-22 01:37 39.49360 -107.29859 7338 ft 106 kts 335°
2026-04-22 01:37 39.50058 -107.30181 7484 ft 106 kts 334°
2026-04-22 01:38 39.50748 -107.30466 7630 ft 102 kts 335°
2026-04-22 01:38 39.51211 -107.30663 7738 ft 106 kts 335°
2026-04-22 01:38 39.51920 -107.30967 7892 ft 107 kts 335°
2026-04-22 01:38 39.52605 -107.31254 8031 ft 100 kts 335°
2026-04-22 01:39 39.53277 -107.31527 8186 ft 103 kts 335°
2026-04-22 01:39 39.53992 -107.31592 8304 ft 112 kts 21°
2026-04-22 01:39 39.54701 -107.31159 8431 ft 113 kts 20°
2026-04-22 01:39 39.55359 -107.30658 8548 ft 109 kts 45°
2026-04-22 01:40 39.55821 -107.29933 8664 ft 105 kts 59°
2026-04-22 01:40 39.56219 -107.29110 8771 ft 110 kts 59°
2026-04-22 01:40 39.56517 -107.28187 8886 ft 115 kts 93°
2026-04-22 01:40 39.56526 -107.27161 8980 ft 112 kts 93°
2026-04-22 01:41 39.56554 -107.26152 9098 ft 115 kts 94°
2026-04-22 01:41 39.56590 -107.25080 9106 ft 117 kts 91°
2026-04-22 01:41 39.56707 -107.24020 9186 ft 123 kts 79°
2026-04-22 01:41 39.57021 -107.23018 9289 ft 117 kts 69°
2026-04-22 01:42 39.57349 -107.22097 9404 ft 110 kts 69°
2026-04-22 01:42 39.57660 -107.21210 9520 ft 106 kts 68°
2026-04-22 01:42 39.57991 -107.20351 9653 ft 108 kts 58°
2026-04-22 01:42 39.58394 -107.19522 9771 ft 108 kts 59°
2026-04-22 01:43 39.58782 -107.18719 9887 ft 98 kts 60°
2026-04-22 01:43 39.59137 -107.17986 10003 ft 96 kts 58°
2026-04-22 01:43 39.59491 -107.17253 10113 ft 96 kts 59°
2026-04-22 01:43 39.59853 -107.16519 10227 ft 97 kts 59°
2026-04-22 01:44 39.60252 -107.15706 10097 ft 117 kts 58°
2026-04-22 01:44 39.60712 -107.14751 9958 ft 133 kts 58°
2026-04-22 01:44 39.61193 -107.13706 9788 ft 136 kts 59°
2026-04-22 01:44 39.61690 -107.12667 9613 ft 136 kts 59°
2026-04-22 01:45 39.62201 -107.11612 9425 ft 140 kts 58°
2026-04-22 01:45 39.62719 -107.10533 9232 ft 142 kts 59°
2026-04-22 01:45 39.63250 -107.09437 9015 ft 145 kts 59°
2026-04-22 01:45 39.63722 -107.08290 8829 ft 143 kts 70°
2026-04-22 01:46 39.63984 -107.07066 8642 ft 139 kts 80°
2026-04-22 01:46 39.64189 -107.05822 8447 ft 142 kts 79°
2026-04-22 01:46 39.64395 -107.04574 8226 ft 140 kts 79°
2026-04-22 01:46 39.64585 -107.03327 7983 ft 142 kts 81°
2026-04-22 01:47 39.64785 -107.02074 7696 ft 140 kts 79°
2026-04-22 01:47 39.64962 -107.00847 7387 ft 137 kts 85°
2026-04-22 01:47 39.65011 -106.99641 7088 ft 129 kts 88°
2026-04-22 01:47 39.65127 -106.98548 6943 ft 113 kts 78°
2026-04-22 01:48 39.65268 -106.97610 6939 ft 100 kts 79°
2026-04-22 01:48 39.65071 -106.96836 6956 ft 90 kts 130°
2026-04-22 01:48 39.64683 -106.96223 6928 ft 82 kts 134°
2026-04-22 01:48 39.64372 -106.95639 6855 ft 78 kts 128°
2026-04-22 01:49 39.64153 -106.94992 6730 ft 79 kts 106°
2026-04-22 01:49 39.64079 -106.94314 6649 ft 72 kts 95°
2026-04-22 01:49 39.64065 -106.93658 6563 ft 74 kts 82°
2026-04-22 01:49 39.64117 -106.93045 6442 ft 60 kts 82°
2026-04-22 01:50 39.64184 -106.92446 6482 ft 77 kts 79°
2026-04-22 01:50 39.64257 -106.91772 6652 ft 75 kts 81°
2026-04-22 01:50 39.64332 -106.91086 6791 ft 80 kts 76°
2026-04-22 01:50 39.64449 -106.90348 6932 ft 87 kts 80°
2026-04-22 01:51 39.64516 -106.89497 6968 ft 102 kts 77°
2026-04-22 01:51 39.64648 -106.88573 7092 ft 102 kts 79°
2026-04-22 01:51 39.64790 -106.87689 7237 ft 98 kts 78°
2026-04-22 01:51 39.64947 -106.86840 7391 ft 97 kts 79°
2026-04-22 01:52 39.65094 -106.85985 7543 ft 97 kts 80°
2026-04-22 01:52 39.65120 -106.85103 7698 ft 100 kts 99°
2026-04-22 01:52 39.64980 -106.84219 7836 ft 99 kts 115°
2026-04-22 01:52 39.64764 -106.83370 8000 ft 99 kts 112°
2026-04-22 01:53 39.64580 -106.82496 8159 ft 102 kts 105°
2026-04-22 01:53 39.64429 -106.81588 8308 ft 103 kts 103°
2026-04-22 01:53 39.64328 -106.80695 8452 ft 100 kts 100°
2026-04-22 01:53 39.64242 -106.79818 8590 ft 97 kts 98°
2026-04-22 01:54 39.64154 -106.78948 8713 ft 98 kts 99°
2026-04-22 01:54 39.64066 -106.78072 8839 ft 99 kts 100°
2026-04-22 01:54 39.63997 -106.77180 8967 ft 100 kts 99°
2026-04-22 01:54 39.63932 -106.76270 9099 ft 102 kts 99°
2026-04-22 01:55 39.63870 -106.75335 9223 ft 104 kts 98°
2026-04-22 01:55 39.63796 -106.74414 9350 ft 102 kts 99°
2026-04-22 01:55 39.63726 -106.73499 9488 ft 100 kts 99°
2026-04-22 01:55 39.63663 -106.72614 9638 ft 97 kts 101°
2026-04-22 01:56 39.63624 -106.71765 9796 ft 90 kts 99°
2026-04-22 01:56 39.63590 -106.70993 9949 ft 83 kts 99°
2026-04-22 01:56 39.63553 -106.70282 10083 ft 75 kts 101°
2026-04-22 01:56 39.63548 -106.69645 10209 ft 66 kts 98°
2026-04-22 01:57 39.63534 -106.69071 10243 ft 62 kts 100°
2026-04-22 01:57 39.63509 -106.68488 10260 ft 71 kts 101°
2026-04-22 01:57 39.63521 -106.67766 10286 ft 88 kts 89°
2026-04-22 01:57 39.63575 -106.66933 10362 ft 98 kts 91°
2026-04-22 01:58 39.63632 -106.65978 10308 ft 113 kts 90°
2026-04-22 01:58 39.63676 -106.64932 10261 ft 118 kts 90°
2026-04-22 01:58 39.63722 -106.63855 10248 ft 122 kts 90°
2026-04-22 01:58 39.63771 -106.62731 10214 ft 127 kts 90°
2026-04-22 01:59 39.63811 -106.61575 10112 ft 129 kts 91°
2026-04-22 01:59 39.63858 -106.60412 10024 ft 129 kts 90°
2026-04-22 01:59 39.63893 -106.59243 9928 ft 130 kts 90°
2026-04-22 01:59 39.63920 -106.58080 9825 ft 127 kts 91°
2026-04-22 02:00 39.63942 -106.56931 9728 ft 128 kts 90°
2026-04-22 02:00 39.63965 -106.55773 9608 ft 128 kts 90°
2026-04-22 02:00 39.63844 -106.54637 9480 ft 128 kts 111°
2026-04-22 02:00 39.63569 -106.53536 9332 ft 128 kts 111°
2026-04-22 02:01 39.63299 -106.52424 9183 ft 130 kts 111°
2026-04-22 02:01 39.63036 -106.51314 9154 ft 125 kts 110°
2026-04-22 02:01 39.62801 -106.50290 9273 ft 114 kts 110°
2026-04-22 02:01 39.62582 -106.49336 9397 ft 108 kts 110°
2026-04-22 02:02 39.62369 -106.48415 9526 ft 108 kts 110°
2026-04-22 02:02 39.62164 -106.47500 9644 ft 101 kts 110°
2026-04-22 02:02 39.61861 -106.46731 9765 ft 94 kts 140°
2026-04-22 02:02 39.61422 -106.46113 9885 ft 92 kts 137°
2026-04-22 02:03 39.61029 -106.45524 9980 ft 78 kts 135°
2026-04-22 02:03 39.60684 -106.45020 10081 ft 75 kts 138°
2026-04-22 02:03 39.60365 -106.44538 10139 ft 67 kts 136°
2026-04-22 02:03 39.60048 -106.44078 10155 ft 74 kts 137°
2026-04-22 02:04 39.59224 -106.42923 10177 ft 101 kts 137°
2026-04-22 02:04 39.58705 -106.42225 10177 ft 113 kts 139°
2026-04-22 02:04 39.58033 -106.41663 10173 ft 116 kts 154°
2026-04-22 02:05 39.57338 -106.41144 10172 ft 114 kts 153°
2026-04-22 02:05 39.56627 -106.40745 10176 ft 109 kts 168°
2026-04-22 02:05 39.55900 -106.40478 10184 ft 108 kts 167°
2026-04-22 02:05 39.55190 -106.40208 10192 ft 105 kts 168°
2026-04-22 02:06 39.54478 -106.39929 10207 ft 109 kts 167°
2026-04-22 02:06 39.53741 -106.39651 10210 ft 111 kts 167°
2026-04-22 02:06 39.53008 -106.39379 10214 ft 110 kts 167°
2026-04-22 02:06 39.52278 -106.39037 10217 ft 115 kts 147°
2026-04-22 02:07 39.51632 -106.38438 10226 ft 115 kts 153°
2026-04-22 02:07 39.50938 -106.37926 10241 ft 114 kts 154°
2026-04-22 02:07 39.50240 -106.37437 10245 ft 113 kts 159°
2026-04-22 02:07 39.49542 -106.36999 10248 ft 110 kts 158°
2026-04-22 02:08 39.48871 -106.36569 10257 ft 107 kts 158°
2026-04-22 02:08 39.48207 -106.36147 10272 ft 107 kts 158°
2026-04-22 02:08 39.47560 -106.35625 10283 ft 114 kts 147°
2026-04-22 02:08 39.46935 -106.35021 10394 ft 109 kts 143°
2026-04-22 02:09 39.46408 -106.34362 10494 ft 104 kts 141°
2026-04-22 02:09 39.45886 -106.33704 10496 ft 103 kts 140°
2026-04-22 02:09 39.45372 -106.33065 10504 ft 105 kts 141°
2026-04-22 02:09 39.44758 -106.32615 10520 ft 104 kts 164°
2026-04-22 02:10 39.44074 -106.32271 10520 ft 105 kts 162°
2026-04-22 02:10 39.43407 -106.31920 10524 ft 103 kts 162°
2026-04-22 02:10 39.42733 -106.31688 10534 ft 98 kts 183°
2026-04-22 02:10 39.42050 -106.31690 10541 ft 97 kts 182°
2026-04-22 02:11 39.41376 -106.31692 10543 ft 96 kts 183°
2026-04-22 02:11 39.40711 -106.31685 10554 ft 95 kts 182°
2026-04-22 02:11 39.40051 -106.31772 10565 ft 96 kts 187°
2026-04-22 02:11 39.39379 -106.31842 10601 ft 95 kts 187°
2026-04-22 02:12 39.38730 -106.31854 10685 ft 96 kts 176°
2026-04-22 02:12 39.38082 -106.31713 10803 ft 92 kts 174°
2026-04-22 02:12 39.37456 -106.31468 10895 ft 99 kts 167°
2026-04-22 02:12 39.36786 -106.31198 10941 ft 97 kts 167°
2026-04-22 02:13 39.36178 -106.30936 11007 ft 90 kts 167°
2026-04-22 02:13 39.35607 -106.31060 11006 ft 87 kts 215°
2026-04-22 02:13 39.35227 -106.31672 11021 ft 92 kts 239°
2026-04-22 02:13 39.34886 -106.32385 11018 ft 92 kts 237°
2026-04-22 02:14 39.34436 -106.32972 11022 ft 93 kts 218°
2026-04-22 02:14 39.33821 -106.33217 10946 ft 96 kts 191°
2026-04-22 02:14 39.33181 -106.33504 10853 ft 99 kts 205°
2026-04-22 02:14 39.32545 -106.33826 10853 ft 97 kts 203°
2026-04-22 02:15 39.31894 -106.33961 10850 ft 101 kts 168°
2026-04-22 02:15 39.31208 -106.33683 10866 ft 103 kts 167°
2026-04-22 02:15 39.30522 -106.33447 10867 ft 102 kts 172°
2026-04-22 02:15 39.29816 -106.33304 10866 ft 104 kts 175°
2026-04-22 02:16 39.29110 -106.33147 10864 ft 103 kts 172°
2026-04-22 02:16 39.28420 -106.32941 10864 ft 101 kts 171°
2026-04-22 02:16 39.27723 -106.32743 10856 ft 102 kts 172°
2026-04-22 02:16 39.27034 -106.32587 10853 ft 99 kts 175°
2026-04-22 02:17 39.26360 -106.32480 10853 ft 97 kts 176°
2026-04-22 02:17 39.25701 -106.32379 10860 ft 96 kts 176°
2026-04-22 02:17 39.25037 -106.32273 10750 ft 97 kts 176°
2026-04-22 02:17 39.24383 -106.32135 10687 ft 96 kts 173°
2026-04-22 02:18 39.23711 -106.32010 10294 ft 96 kts 174°
2026-04-22 02:18 39.23170 -106.31930 10069 ft 60 kts 169°
2026-04-22 02:18 39.22811 -106.31842 9945 ft 45 kts 168°
2026-04-22 02:18 39.22587 -106.31791 9934 ft 16 kts 173°
2026-04-22 02:19 39.22506 -106.31769 9937 ft 8 kts 167°
2026-04-22 02:19 39.22483 -106.31731 9936 ft 5 kts 84°
2026-04-22 02:19 39.22489 -106.31679 9935 ft 7 kts 82°
2026-04-22 02:19 39.22519 -106.31645 9932 ft 5 kts 86°
2026-04-22 02:20 39.22520 -106.31632 9934 ft 0 kts 76°